• In Deutschland
  • Länderverzeichnis
  • Für 7 Tage
  • Wassertemperatur
  • Satellitenkarten
  • Wetterkarte
  • Widgets
  • user-avatar
    Anmelden

    Stündliche Wetter Jewłach

    Heute, 25 Juli, Dienstag

    Zeit Temperatur Niederschläge Wind Luftdruck Luftfeuchtigkeit
    00:00 +27°C° 0 mm 3 m/S 756 mmHg 57%
    01:00 +27°C° 0 mm 3 m/S 756 mmHg 58%
    02:00 +26°C° 0 mm 2 m/S 756 mmHg 60%
    03:00 +26°C° 0 mm 2 m/S 756 mmHg 60%
    04:00 +26°C° 0 mm 2 m/S 756 mmHg 59%
    05:00 +27°C° 0 mm 2 m/S 756 mmHg 57%
    06:00 +27°C° 0 mm 1 m/S 756 mmHg 56%
    07:00 +29°C° 0 mm 2 m/S 755 mmHg 51%
    08:00 +30°C° 0 mm 2 m/S 755 mmHg 46%
    09:00 +32°C° 0 mm 2 m/S 755 mmHg 42%
    10:00 +34°C° 0 mm 2 m/S 754 mmHg 38%
    11:00 +35°C° 0 mm 2 m/S 754 mmHg 35%
    12:00 +37°C° 0 mm 2 m/S 754 mmHg 31%
    13:00 +37°C° 0 mm 2 m/S 753 mmHg 29%
    14:00 +38°C° 0 mm 2 m/S 753 mmHg 28%
    15:00 +37°C° 0 mm 1 m/S 753 mmHg 28%
    16:00 +37°C° 0 mm 1 m/S 753 mmHg 28%
    17:00 +37°C° 0 mm 1 m/S 753 mmHg 28%
    18:00 +36°C° 0 mm 1 m/S 753 mmHg 28%
    19:00 +36°C° 0 mm 2 m/S 753 mmHg 30%
    20:00 +34°C° 0 mm 2 m/S 754 mmHg 32%
    21:00 +32°C° 0 mm 2 m/S 754 mmHg 34%
    22:00 +31°C° 0,1 mm 2 m/S 754 mmHg 37%
    23:00 +30°C° 0,1 mm 2 m/S 755 mmHg 39%

    Morgen, 26 Juli, Mittwoch

    Zeit Temperatur Niederschläge Wind Luftdruck Luftfeuchtigkeit
    00:00 +29°C° 0,1 mm 2 m/S 755 mmHg 42%
    01:00 +29°C° 0,1 mm 2 m/S 755 mmHg 44%
    02:00 +28°C° 0,1 mm 2 m/S 755 mmHg 46%
    03:00 +28°C° 0,1 mm 1 m/S 755 mmHg 48%
    04:00 +28°C° 0,1 mm 1 m/S 755 mmHg 47%
    05:00 +29°C° 0,1 mm 1 m/S 755 mmHg 45%
    06:00 +29°C° 0,1 mm 1 m/S 755 mmHg 44%
    07:00 +31°C° 0 mm 2 m/S 755 mmHg 40%
    08:00 +32°C° 0 mm 2 m/S 755 mmHg 36%
    09:00 +35°C° 0 mm 3 m/S 755 mmHg 32%
    10:00 +36°C° 0 mm 2 m/S 754 mmHg 30%
    11:00 +37°C° 0 mm 2 m/S 754 mmHg 28%
    12:00 +38°C° 0 mm 2 m/S 754 mmHg 26%
    13:00 +39°C° 0 mm 2 m/S 753 mmHg 25%
    14:00 +40°C° 0 mm 2 m/S 753 mmHg 25%
    15:00 +40°C° 0 mm 2 m/S 753 mmHg 24%
    16:00 +40°C° 0,1 mm 2 m/S 753 mmHg 25%
    17:00 +40°C° 0,1 mm 3 m/S 753 mmHg 26%
    18:00 +40°C° 0,1 mm 3 m/S 753 mmHg 26%
    19:00 +37°C° 0,1 mm 3 m/S 754 mmHg 30%
    20:00 +35°C° 0,1 mm 4 m/S 755 mmHg 35%
    21:00 +33°C° 0,1 mm 4 m/S 755 mmHg 39%
    22:00 +32°C° 0 mm 4 m/S 756 mmHg 41%
    23:00 +31°C° 0 mm 3 m/S 756 mmHg 43%

    übermorgen, 27 Juli, Donnerstag

    Zeit Temperatur Niederschläge Wind Luftdruck Luftfeuchtigkeit
    00:00 +30°C° 0 mm 3 m/S 756 mmHg 45%
    01:00 +29°C° 0 mm 2 m/S 756 mmHg 46%
    02:00 +29°C° 0 mm 2 m/S 756 mmHg 47%
    03:00 +29°C° 0 mm 1 m/S 756 mmHg 47%
    04:00 +29°C° 0 mm 1 m/S 757 mmHg 47%
    05:00 +29°C° 0 mm 1 m/S 757 mmHg 46%
    06:00 +30°C° 0 mm 1 m/S 757 mmHg 45%
    07:00 +31°C° 0 mm 1 m/S 757 mmHg 41%
    08:00 +33°C° 0 mm 1 m/S 757 mmHg 36%
    09:00 +35°C° 0 mm 2 m/S 757 mmHg 32%
    10:00 +37°C° 0 mm 2 m/S 756 mmHg 30%
    11:00 +38°C° 0 mm 2 m/S 756 mmHg 28%
    12:00 +39°C° 0 mm 2 m/S 756 mmHg 26%
    13:00 +40°C° 0 mm 2 m/S 755 mmHg 24%
    14:00 +41°C° 0 mm 2 m/S 755 mmHg 23%
    15:00 +42°C° 0 mm 2 m/S 755 mmHg 21%
    16:00 +42°C° 0 mm 3 m/S 755 mmHg 22%
    17:00 +42°C° 0 mm 3 m/S 755 mmHg 22%
    18:00 +42°C° 0 mm 3 m/S 755 mmHg 22%
    19:00 +39°C° 0 mm 3 m/S 755 mmHg 25%
    20:00 +37°C° 0 mm 3 m/S 756 mmHg 28%
    21:00 +35°C° 0 mm 4 m/S 756 mmHg 30%
    22:00 +34°C° 0 mm 3 m/S 757 mmHg 32%
    23:00 +33°C° 0 mm 3 m/S 757 mmHg 33%

    28 Juli, Freitag

    Zeit Temperatur Niederschläge Wind Luftdruck Luftfeuchtigkeit
    00:00 +31°C° 0 mm 3 m/S 757 mmHg 35%
    01:00 +31°C° 0 mm 2 m/S 757 mmHg 35%
    02:00 +30°C° 0 mm 2 m/S 757 mmHg 36%
    03:00 +30°C° 0 mm 1 m/S 756 mmHg 37%
    04:00 +30°C° 0 mm 1 m/S 757 mmHg 37%
    05:00 +31°C° 0 mm 1 m/S 757 mmHg 37%
    06:00 +31°C° 0 mm 1 m/S 757 mmHg 37%
    07:00 +33°C° 0 mm 1 m/S 756 mmHg 33%
    08:00 +36°C° 0 mm 2 m/S 756 mmHg 30%
    09:00 +37°C° 0 mm 2 m/S 756 mmHg 26%
    10:00 +39°C° 0 mm 2 m/S 755 mmHg 24%
    11:00 +40°C° 0 mm 2 m/S 755 mmHg 23%
    12:00 +42°C° 0 mm 1 m/S 754 mmHg 21%
    13:00 +42°C° 0 mm 2 m/S 754 mmHg 20%
    14:00 +43°C° 0 mm 2 m/S 753 mmHg 19%
    15:00 +45°C° 0 mm 2 m/S 753 mmHg 18%
    16:00 +43°C° 0 mm 2 m/S 753 mmHg 18%
    17:00 +43°C° 0 mm 2 m/S 753 mmHg 18%
    18:00 +43°C° 0 mm 2 m/S 753 mmHg 19%
    19:00 +41°C° 0 mm 2 m/S 754 mmHg 21%
    20:00 +38°C° 0 mm 3 m/S 754 mmHg 24%
    21:00 +36°C° 0 mm 3 m/S 755 mmHg 26%
    22:00 +35°C° 0 mm 3 m/S 755 mmHg 29%
    23:00 +34°C° 0 mm 3 m/S 755 mmHg 32%

    29 Juli, Samstag

    Zeit Temperatur Niederschläge Wind Luftdruck Luftfeuchtigkeit
    00:00 +32°C° 0 mm 2 m/S 755 mmHg 35%
    01:00 +31°C° 0 mm 2 m/S 755 mmHg 36%
    02:00 +31°C° 0 mm 1 m/S 755 mmHg 38%
    03:00 +30°C° 0 mm 1 m/S 755 mmHg 39%
    04:00 +31°C° 0 mm 1 m/S 755 mmHg 38%
    05:00 +31°C° 0 mm 2 m/S 755 mmHg 37%
    06:00 +32°C° 0 mm 2 m/S 755 mmHg 35%
    07:00 +35°C° 0 mm 3 m/S 755 mmHg 30%
    08:00 +37°C° 0 mm 3 m/S 755 mmHg 25%
    09:00 +41°C° 0 mm 4 m/S 755 mmHg 19%
    10:00 +42°C° 0 mm 4 m/S 754 mmHg 18%
    11:00 +43°C° 0 mm 3 m/S 754 mmHg 16%
    12:00 +45°C° 0 mm 3 m/S 754 mmHg 14%
    13:00 +46°C° 0 mm 3 m/S 753 mmHg 14%
    14:00 +46°C° 0 mm 3 m/S 753 mmHg 13%
    15:00 +47°C° 0 mm 3 m/S 753 mmHg 12%
    16:00 +46°C° 0 mm 2 m/S 753 mmHg 13%
    17:00 +46°C° 0 mm 2 m/S 753 mmHg 13%
    18:00 +44°C° 0 mm 1 m/S 753 mmHg 14%
    19:00 +42°C° 0 mm 2 m/S 754 mmHg 16%
    20:00 +40°C° 0 mm 2 m/S 755 mmHg 19%
    21:00 +37°C° 0 mm 3 m/S 756 mmHg 21%
    22:00 +36°C° 0 mm 3 m/S 756 mmHg 26%
    23:00 +35°C° 0 mm 2 m/S 756 mmHg 31%

    30 Juli, Sonntag

    Zeit Temperatur Niederschläge Wind Luftdruck Luftfeuchtigkeit
    00:00 +34°C° 0 mm 2 m/S 757 mmHg 35%
    01:00 +33°C° 0 mm 3 m/S 757 mmHg 37%
    02:00 +33°C° 0 mm 3 m/S 757 mmHg 39%
    03:00 +33°C° 0 mm 4 m/S 758 mmHg 41%
    04:00 +33°C° 0 mm 4 m/S 758 mmHg 41%
    05:00 +33°C° 0 mm 4 m/S 758 mmHg 42%
    06:00 +33°C° 0 mm 4 m/S 759 mmHg 42%
    07:00 +35°C° 0 mm 4 m/S 759 mmHg 38%
    08:00 +36°C° 0 mm 4 m/S 759 mmHg 33%
    09:00 +38°C° 0 mm 4 m/S 759 mmHg 29%
    10:00 +40°C° 0 mm 4 m/S 758 mmHg 27%
    11:00 +40°C° 0 mm 3 m/S 758 mmHg 25%
    12:00 +41°C° 0 mm 2 m/S 758 mmHg 23%
    13:00 +41°C° 0 mm 2 m/S 758 mmHg 23%
    14:00 +42°C° 0 mm 2 m/S 757 mmHg 22%
    15:00 +43°C° 0 mm 2 m/S 757 mmHg 21%
    16:00 +42°C° 0 mm 2 m/S 757 mmHg 22%
    17:00 +43°C° 0 mm 3 m/S 758 mmHg 22%
    18:00 +42°C° 0 mm 4 m/S 758 mmHg 23%
    19:00 +40°C° 0 mm 4 m/S 759 mmHg 29%
    20:00 +36°C° 0 mm 5 m/S 759 mmHg 35%
    21:00 +34°C° 0 mm 6 m/S 760 mmHg 41%
    22:00 +33°C° 0,1 mm 5 m/S 760 mmHg 44%
    23:00 +32°C° 0,1 mm 4 m/S 761 mmHg 47%
    Mehr zeigen